Canton Island Airport


Codes: PCIS/CIS
Name: Canton Island Airport
City: Abariringa
Country: Kiribati
Elevation: 9 ft.
Wikipedia:

Photos at Canton Island Airport


   Photos courtesy of SpottingLog. You can add your own sightings and photos by signing up for a free trial today.



No photos found.

Weather at Canton Island Airport


Time (UTC)DescriptionTempratureWindCloud coverageVisibilityPressureHumidity
23-May-2024 21:00Clear Sky28°C9 mph, E7%10000m1011hPa74%
24-May-2024 00:00Scattered Clouds29°C11 mph, E26%10000m1010hPa72%
24-May-2024 03:00Clear Sky29°C11 mph, E9%10000m1009hPa71%
24-May-2024 06:00Few Clouds29°C13 mph, E20%10000m1010hPa70%
24-May-2024 09:00Clear Sky29°C13 mph, E8%10000m1012hPa70%
24-May-2024 12:00Clear Sky29°C11 mph, E7%10000m1011hPa70%
24-May-2024 15:00Clear Sky28°C11 mph, E6%10000m1010hPa70%
24-May-2024 18:00Clear Sky28°C11 mph, E4%10000m1011hPa72%
24-May-2024 21:00Clear Sky29°C16 mph, E1%10000m1012hPa72%
25-May-2024 00:00Clear Sky29°C16 mph, E1%10000m1010hPa73%
25-May-2024 03:00Clear Sky29°C16 mph, E3%10000m1008hPa77%
25-May-2024 06:00Clear Sky29°C18 mph, E4%10000m1010hPa70%
25-May-2024 09:00Few Clouds29°C18 mph, E24%10000m1011hPa72%
25-May-2024 12:00Light Rain29°C13 mph, E41%10000m1010hPa77%
25-May-2024 15:00Light Rain28°C18 mph, E61%10000m1010hPa79%
25-May-2024 18:00Light Rain28°C18 mph, E62%10000m1011hPa78%
25-May-2024 21:00Light Rain29°C20 mph, NE47%10000m1012hPa75%
26-May-2024 00:00Scattered Clouds29°C18 mph, NE33%10000m1010hPa73%
26-May-2024 03:00Scattered Clouds29°C16 mph, E33%10000m1008hPa70%
26-May-2024 06:00Few Clouds29°C16 mph, E17%10000m1010hPa74%
26-May-2024 09:00Few Clouds29°C16 mph, E13%10000m1011hPa75%
26-May-2024 12:00Light Rain28°C16 mph, E16%10000m1009hPa79%
26-May-2024 15:00Light Rain28°C18 mph, E17%10000m1008hPa79%
26-May-2024 18:00Light Rain29°C20 mph, E22%10000m1009hPa78%
26-May-2024 21:00Light Rain29°C20 mph, E18%10000m1010hPa76%
27-May-2024 00:00Scattered Clouds29°C18 mph, E34%10000m1009hPa75%
27-May-2024 03:00Light Rain29°C18 mph, E27%10000m1007hPa77%
27-May-2024 06:00Light Rain29°C18 mph, NE28%10000m1008hPa78%
27-May-2024 09:00Light Rain29°C20 mph, NE10%10000m1010hPa77%
27-May-2024 12:00Light Rain28°C20 mph, NE23%10000m1009hPa81%
27-May-2024 15:00Light Rain28°C18 mph, NE89%10000m1008hPa78%
27-May-2024 18:00Light Rain29°C18 mph, E94%10000m1009hPa76%
27-May-2024 21:00Light Rain29°C18 mph, E44%10000m1011hPa76%
28-May-2024 00:00Light Rain29°C16 mph, E30%10000m1009hPa77%
28-May-2024 03:00Light Rain29°C16 mph, E13%10000m1007hPa76%
28-May-2024 06:00Light Rain29°C18 mph, E43%10000m1009hPa78%
28-May-2024 09:00Light Rain29°C18 mph, E12%10000m1010hPa79%
28-May-2024 12:00Light Rain28°C18 mph, E12%10000m1009hPa79%
28-May-2024 15:00Light Rain29°C20 mph, E29%10000m1008hPa75%
28-May-2024 18:00Light Rain28°C20 mph, NE23%10000m1010hPa78%